RH
94 91 85 83 84 91 96 77 81 80 82 81 78 77 75 75 77 80 77 91 93 98 86 71 62 59 55 68 73 86 90 90 94 94 89 71 75 71 70 54 68 75 91 95 98 100 92 46 51 65 61 57 57 56
94 93 87 88 86 91 97 81 81 75 84 79 79 75 76 68 75 78 72 76 82 98 91 81 75 80 69 67 78 73 85 77 83 93 82 84 86 72 64 71 53 69 61 75 71 70 49 46 49 52 57 63 60 58
89 94 88 89 86 91 98 83 81 78 82 76 75 74 76 76 74 79 86 79 85 97 91 94 81 74 67 67 68 87 88 73 72 74 86 90 91 76 84 70 62 52 48 69 62 47 48 54 53 55 59 64 62 56
87 93 88 92 88 89 99 89 77 84 84 76 76 72 75 84 75 83 86 79 86 96 100 79 72 75 77 71 72 70 70 74 82 88 90 91 90 74 79 74 76 65 62 66 67 59 51 58 58 57 59 57 60 61
96 94 90 92 88 91 99 91 84 80 83 88 80 84 85 82 80 85 77 81 82 94 99 88 73 82 83 80 76 78 78 88 95 98 97 93 85 82 80 79 83 62 67 72 69 55 56 60 57 55 61 61 61 63
95 95 89 93 91 91 99 90 87 83 80 75 84 78 86 85 88 84 89 99 99 94 100 99 80 77 81 81 83 83 86 91 93 96 92 91 71 84 97 90 60 52 48 48 52 50 54 55 56 54 61 59 60 62
96 94 91 91 92 90 99 93 84 84 85 82 85 87 90 90 89 75 90 99 94 95 99 99 94 86 83 82 88 89 86 95 94 96 97 90 84 86 89 86 57 52 49 46 44 50 55 56 62 60 59 58 55 55
90 93 94 95 93 95 99 93 84 86 87 87 88 88 100 90 93 86 77 80 85 99 97 100 98 84 83 88 92 86 94 96 99 94 92 94 83 91 96 75 65 60 59 57 48 52 57 61 63 64 59 57 58 56
88 95 96 96 95 94 98 91 92 90 90 88 73 78 75 69 67 96 88 93 98 100 99 99 100 100 86 84 92 97 97 99 95 98 95 97 91 99 86 74 71 66 63 62 72 66 62 66 73 68 66 61 57 56
87 95 95 96 95 96 96 91 92 91 89 79 85 83 90 88 86 89 96 100 100 99 100 99 81 86 84 80 95 93 98 98 95 96 94 100 98 75 70 73 72 71 66 71 73 88 96 93 84 72 63 56 53 51
90 95 93 95 96 97 91 88 92 92 79 83 78 86 91 94 99 98 99 99 98 100 96 89 80 86 87 85 91 92 97 99 100 95 94 99 95 76 68 66 69 73 73 75 69 63 74 75 75 69 62 59 57 52
85 97 95 98 96 96 95 80 96 82 86 86 92 93 99 97 99 100 99 100 99 100 98 95 91 85 88 90 94 93 100 99 98 83 92 98 84 70 65 71 78 76 74 74 67 60 64 67 64 65 68 63 57 47
91 92 98 98 96 97 96 80 84 80 82 96 97 98 100 100 99 99 100 100 100 100 100 99 99 91 89 95 96 96 100 98 84 95 89 94 80 70 71 74 77 72 69 67 68 63 62 65 65 68 74 64 50 46
98 98 99 99 96 99 96 78 64 79 83 82 90 97 99 95 92 96 99 99 100 100 100 99 99 97 87 98 96 99 90 87 91 94 94 94 86 80 76 76 79 77 71 71 73 70 72 79 84 77 70 63 48 46
98 99 100 99 91 99 94 70 68 81 77 85 87 92 97 97 100 100 100 100 100 99 100 100 100 91 100 100 92 99 95 91 82 93 98 94 89 86 82 80 81 78 74 73 70 70 69 66 63 62 53 48 47 48
98 99 96 81 98 91 84 64 78 79 77 86 89 95 88 98 99 100 99 100 97 95 100 100 100 100 99 98 96 91 94 91 99 98 97 94 88 86 83 81 83 80 73 71 70 68 67 64 63 58 54 52 50 49
99 99 99 81 76 86 79 76 88 92 90 79 83 86 95 95 95 94 80 75 78 96 100 100 100 95 99 99 98 91 92 100 99 98 96 87 88 86 86 83 85 83 79 74 70 67 66 62 59 58 62 56 53 54
100 98 97 88 88 88 76 82 95 88 88 91 83 87 78 78 80 74 75 78 86 96 99 100 100 99 98 99 88 98 91 93 95 96 92 87 85 79 78 89 91 92 88 85 77 70 66 65 70 70 66 62 60 58
98 98 98 98 88 74 92 93 91 97 92 88 82 74 75 71 78 79 81 76 79 83 91 98 100 98 96 99 97 98 97 97 95 91 89 83 72 78 83 87 88 86 90 88 83 78 73 67 66 69 67 60 60 61
100 99 98 100 88 77 90 96 88 96 96 92 89 86 78 77 75 82 90 83 91 97 94 93 86 88 86 90 92 93 93 86 88 92 88 85 79 82 85 86 90 89 84 84 77 72 68 69 67 65 62 62 62 63
100 100 100 99 71 77 92 94 95 94 95 95 92 89 85 83 86 90 85 84 96 97 96 92 88 86 88 79 77 78 84 81 85 87 90 89 83 86 82 83 82 88 90 84 85 76 70 72 66 64 62 62 61 65
100 100 98 90 83 89 94 94 98 93 94 94 95 86 97 96 95 89 94 91 82 92 94 91 93 93 91 84 76 62 66 72 76 84 78 74 79 80 81 82 88 97 90 84 76 79 70 65 64 67 64 64 63 70
99 97 95 77 83 84 87 90 98 95 96 97 97 98 98 98 88 95 95 88 92 93 87 89 88 80 81 66 63 64 62 71 87 81 78 80 78 76 80 83 86 94 97 91 79 74 70 68 72 66 66 69 78 89
94 97 97 94 92 91 80 96 84 91 94 94 98 92 95 98 92 95 97 96 96 96 95 95 91 89 85 86 94 90 57 58 66 71 72 78 93 87 82 85 87 87 87 92 84 76 74 77 71 70 76 86 92 89
95 96 95 97 91 84 89 94 93 93 96 95 94 91 95 98 99 100 98 93 98 98 97 96 94 93 94 95 90 63 56 59 77 89 76 76 80 86 86 81 84 89 86 91 90 85 82 78 77 77 88 94 94 90
96 94 94 85 88 82 77 88 92 89 90 96 94 96 98 98 100 93 92 93 95 96 94 93 91 95 91 83 88 88 63 61 65 82 75 73 78 90 91 92 92 85 88 90 97 97 93 83 80 80 93 94 96 81
96 97 85 58 66 68 70 69 67 85 89 89 94 99 98 98 90 82 89 91 94 81 71 71 78 86 86 75 63 63 65 70 74 76 72 79 83 83 90 92 91 85 88 94 98 98 97 96 93 91 96 98 96 74
85 70 80 75 72 82 79 81 83 83 82 80 80 96 94 79 69 85 91 77 70 66 64 70 72 70 67 66 68 72 76 78 84 89 90 91 89 82 84 92 97 100 100 100 98 98 98 97 97 97 96 96 94 86
88 79 76 90 87 84 81 75 78 81 68 84 84 85 86 88 89 91 66 61 62 67 74 76 66 63 70 77 79 79 82 91 100 100 100 93 88 79 71 81 94 99 98 98 98 98 96 96 97 97 96 96 95 89
96 78 83 87 84 80 85 91 94 93 87 86 84 92 92 93 68 60 64 66 73 82 70 69 75 86 91 92 92 89 85 87 94 98 96 94 88 77 83 88 96 97 98 98 98 98 98 98 98 97 97 96 97 95
85 92 91 87 88 95 96 90 92 83 92 97 96 97 97 95 75 63 70 72 78 82 85 89 85 84 94 96 98 98 94 84 81 83 91 98 99 99 95 92 91 96 98 97 97 97 98 98 96 96 96 96 91 86
94 94 94 96 98 97 96 97 97 97 97 98 97 99 97 97 95 90 74 77 88 94 89 87 95 92 83 89 95 98 100 100 100 98 96 94 88 82 82 91 96 97 97 97 97 97 95 96 96 96 96 95 90 82
97 95 95 93 97 96 96 96 96 96 98 98 97 97 97 98 88 89 72 77 78 82 83 81 81 86 90 94 97 99 100 100 100 100 100 99 99 97 95 95 96 97 96 96 96 96 96 96 96 96 96 94 89 74
Wind_Speed
13 14 15 16 16 18 18 17 17 16 15 15 15 16 17 15 16 16 12 7 7 3 6 4 6 4 2 2 1 3 3 1 1 1 2 0 1 3 2 1 5 6 6 4 3 4 5 1 4 1 3 3 5 4
13 14 16 17 17 18 17 17 19 17 16 15 14 14 14 15 12 13 5 13 13 4 4 8 17 12 3 1 2 2 2 2 3 3 1 2 2 3 4 2 3 2 4 4 7 5 5 2 4 3 4 3 5 3
13 14 16 17 17 18 17 17 20 18 17 17 16 14 14 13 11 10 10 10 6 3 4 3 3 4 3 3 3 3 1 3 2 2 1 1 4 2 3 4 4 5 3 2 4 3 3 4 5 5 5 4 4 2
13 14 15 16 17 18 19 17 19 19 19 19 17 16 15 12 12 11 9 11 5 3 2 1 2 1 2 2 3 3 4 4 2 2 1 2 2 1 3 3 3 2 2 3 5 8 3 5 5 4 5 5 4 7
13 12 14 16 17 18 20 18 19 20 20 20 19 18 16 12 13 14 13 14 14 3 3 3 10 3 2 4 6 5 6 4 2 1 2 2 1 3 3 3 5 4 6 4 4 2 1 1 3 4 6 5 6 6
12 12 12 15 17 17 20 18 20 20 22 22 21 21 19 14 10 6 1 1 9 13 2 2 1 3 3 4 5 4 3 2 2 2 2 2 3 1 3 3 6 8 8 9 6 3 2 4 5 4 6 6 7 7
13 13 12 14 15 16 20 18 21 21 22 24 25 25 17 11 11 5 0 3 5 4 2 2 1 2 2 2 1 2 4 2 2 2 2 2 3 4 3 5 6 12 9 6 4 4 2 4 3 6 7 8 12 11
13 13 14 14 14 16 20 19 20 21 24 25 23 14 6 5 4 6 12 11 9 4 2 2 2 2 4 2 2 2 2 2 3 2 1 2 2 3 4 7 9 11 9 5 3 5 5 7 7 7 7 7 9 9
13 14 14 14 15 15 18 20 20 22 25 24 7 3 3 3 2 2 2 5 7 4 2 2 1 1 1 1 1 2 1 2 2 2 2 1 3 4 5 7 6 4 3 2 6 6 6 6 7 7 8 7 10 9
13 13 13 14 16 15 17 19 19 21 25 7 2 3 1 2 7 2 3 2 2 3 3 2 1 1 2 1 2 2 1 1 2 1 2 2 3 9 9 7 5 7 5 5 2 2 1 1 6 7 8 7 9 10
14 13 12 13 15 15 15 18 19 20 7 4 2 0 5 4 1 2 3 3 3 2 3 3 1 1 1 1 1 1 1 0 2 1 1 2 2 3 7 8 7 8 8 7 6 4 6 7 9 9 7 9 10 13
15 13 12 13 14 15 13 17 15 12 5 5 6 4 3 2 1 2 2 0 2 2 1 0 2 1 1 1 1 0 1 1 3 1 1 2 1 5 8 8 8 7 7 8 5 3 5 7 9 8 8 9 12 19
16 14 13 13 13 13 12 14 14 9 4 2 3 0 1 2 2 3 4 2 2 1 2 2 0 0 0 1 1 1 1 3 1 1 2 2 5 9 11 9 10 6 7 6 5 3 4 8 14 16 11 14 18 19
16 15 13 13 12 12 8 13 12 2 2 2 2 2 2 3 3 1 2 2 1 1 2 1 1 1 0 1 0 1 1 1 2 2 3 2 7 10 10 9 10 9 8 7 6 5 5 8 8 14 17 19 19 18
16 14 13 13 11 9 7 10 5 0 0 2 2 3 3 2 1 1 1 0 1 2 2 1 1 1 0 1 1 1 1 3 3 2 2 4 7 7 9 10 10 9 7 6 5 3 3 6 8 11 18 19 21 21
13 10 8 5 5 5 7 5 4 1 0 2 3 2 1 0 2 1 1 1 0 1 1 1 1 1 3 3 2 5 3 4 2 1 2 4 7 8 8 9 8 7 6 5 4 2 4 6 7 10 16 19 21 22
11 4 4 4 4 7 6 3 3 2 2 3 3 2 1 2 2 1 2 2 1 2 1 1 3 1 1 2 3 4 2 2 1 3 2 5 6 8 7 7 6 7 6 6 4 2 3 10 16 15 9 14 20 22
8 5 5 7 4 4 1 1 1 1 4 3 2 2 2 1 2 3 2 3 1 1 0 0 1 3 3 2 1 2 3 2 2 1 4 7 8 5 9 7 10 10 8 5 4 5 10 12 7 6 16 20 22 23
16 11 7 7 3 1 0 1 1 2 3 1 2 0 1 2 2 2 2 1 1 2 0 1 3 2 2 2 2 1 1 1 2 3 5 8 3 5 10 13 13 8 5 3 2 4 7 8 11 15 17 17 15 17
15 10 5 9 4 2 0 0 0 2 2 0 1 1 2 2 1 2 3 2 2 2 1 3 4 2 2 2 1 1 2 3 3 4 4 3 11 12 10 11 9 11 8 4 3 5 11 11 14 18 17 16 18 18
12 8 14 9 1 2 0 1 2 1 1 1 1 1 1 1 2 2 2 2 1 3 3 3 2 3 3 2 2 3 4 4 2 2 4 7 10 13 13 13 12 9 7 5 3 5 8 9 13 16 19 18 18 18
7 17 5 2 2 2 1 1 1 0 1 1 1 1 2 2 2 3 1 3 4 3 3 2 3 3 3 2 1 4 7 8 9 11 11 12 7 7 7 12 8 3 9 11 11 9 11 13 16 18 19 20 22 22
15 7 4 2 2 2 2 1 3 3 2 2 1 1 2 1 1 2 3 3 3 2 2 2 3 3 3 3 3 7 7 8 4 6 8 10 13 14 14 15 14 10 4 12 14 14 17 18 17 19 21 21 23 22
10 4 4 4 3 2 2 2 1 1 1 1 2 2 2 2 1 2 4 3 3 2 2 4 4 1 2 2 2 3 4 5 9 12 11 12 4 10 14 16 17 17 17 16 14 16 17 18 20 20 21 22 21 22
5 4 4 4 0 2 4 3 3 3 3 3 3 2 2 1 1 3 3 3 2 3 3 3 3 3 3 2 2 7 6 7 7 5 10 11 15 15 13 15 18 18 13 14 14 16 16 18 20 20 21 22 22 22
6 6 9 8 4 5 6 5 5 6 3 3 4 1 1 2 0 6 3 3 3 4 5 6 6 3 4 7 4 2 10 8 9 7 14 15 16 11 7 7 7 12 13 17 16 16 17 20 21 23 21 23 26 26
6 6 3 1 2 3 2 1 2 2 5 6 3 3 3 2 5 4 2 2 3 6 12 16 17 9 5 6 12 12 13 14 15 17 20 21 23 24 22 16 11 19 17 17 21 21 21 22 23 25 24 23 25 27
4 5 7 6 3 1 4 3 5 6 4 3 5 4 7 8 5 3 3 2 7 6 8 11 13 15 15 16 16 17 18 17 17 19 22 27 26 25 25 27 29 27 24 24 21 25 25 25 25 26 28 26 24 26
3 4 5 4 3 3 5 7 4 3 2 4 5 4 4 3 2 2 3 5 7 8 8 10 13 13 15 16 16 17 18 16 7 6 10 9 5 11 15 19 19 20 21 23 21 24 29 30 29 30 30 29 29 30
4 4 3 4 6 6 3 1 1 1 1 0 1 2 2 3 5 7 10 11 11 11 13 12 10 9 10 9 10 15 16 18 21 16 9 9 7 12 14 16 17 17 19 21 19 21 24 25 27 28 30 29 29 28
5 2 3 3 3 1 1 1 1 1 1 1 0 2 3 3 8 9 14 16 13 10 9 8 10 12 13 13 11 5 8 12 14 18 23 24 23 22 22 21 19 17 19 20 22 24 25 26 26 28 29 29 30 30
3 3 4 5 2 0 0 0 1 1 0 1 2 1 3 3 3 3 4 7 8 6 9 9 10 11 10 13 16 18 20 24 25 25 23 23 25 25 24 20 16 14 20 22 21 26 32 27 25 28 29 30 31 32
2 2 2 3 2 2 1 2 1 2 1 2 2 2 2 2 6 3 3 8 9 6 8 8 9 10 11 13 15 16 18 21 21 20 19 19 18 17 16 14 13 17 23 27 29 30 30 29 29 32 33 32 33 34
Wind_Direction
303 307 308 312 313 312 318 322 320 326 329 333 340 343 349 351 355 356 319 5 6 308 286 297 321 322 92 298 165 129 134 90 59 220 266 279 17 291 307 197 175 175 172 193 172 222 268 221 332 302 248 307 320 360
298 303 305 307 311 309 316 321 315 321 321 323 328 332 339 342 345 349 323 325 330 251 277 292 278 279 320 6 110 134 65 131 185 246 301 10 330 298 298 280 7 248 213 175 199 217 268 271 219 43 38 326 322 35
293 299 301 308 309 307 315 320 314 318 318 318 319 322 328 332 329 329 312 320 336 271 266 250 217 210 227 220 180 121 173 230 270 49 96 105 249 228 273 240 285 238 244 218 353 296 329 58 33 65 42 1 348 315
290 292 299 305 308 305 316 318 313 314 312 313 314 313 315 316 308 312 299 291 266 261 276 58 96 121 225 201 195 118 133 114 70 76 241 245 256 347 264 301 274 282 1 251 269 286 300 83 77 33 51 36 49 51
281 289 300 305 308 306 318 316 311 314 310 309 310 309 311 308 300 302 291 272 247 243 319 299 312 123 159 175 165 145 137 119 125 169 201 226 229 257 247 249 248 200 206 196 235 102 177 46 72 27 76 73 82 94
280 287 301 305 308 304 315 315 310 311 309 309 308 305 300 291 283 303 306 51 204 195 272 297 57 158 129 134 142 160 159 129 155 189 207 251 260 240 260 256 255 248 224 228 261 113 107 99 79 68 102 98 95 94
280 287 298 302 303 305 314 316 313 315 311 313 312 311 304 270 223 204 231 118 55 213 243 272 253 95 123 130 135 153 158 163 187 205 216 227 240 197 250 250 284 310 322 331 247 124 227 162 135 106 99 93 96 92
272 286 291 298 306 304 315 313 315 317 317 317 318 322 311 161 162 238 260 270 275 250 252 269 279 186 179 186 194 155 171 175 197 234 241 230 215 209 257 249 250 259 273 309 179 143 108 112 108 110 109 114 109 107
272 280 291 303 309 307 314 313 319 322 320 319 334 115 99 81 149 105 214 242 211 264 292 194 210 258 129 253 192 178 208 204 161 212 227 216 202 223 241 268 293 350 7 45 46 61 120 145 140 136 135 135 126 125
266 276 292 305 310 308 313 315 324 327 323 330 357 244 127 66 317 198 210 213 199 195 225 253 270 181 187 176 236 153 157 328 250 194 343 238 262 272 323 343 344 328 332 135 112 328 54 119 160 161 163 154 139 136
263 277 289 299 308 310 317 319 326 334 346 10 337 329 324 342 180 215 202 204 186 205 200 216 305 37 50 277 342 38 154 136 270 190 233 286 270 39 357 334 337 324 312 292 242 294 187 170 170 169 159 140 138 137
254 269 288 298 307 310 315 322 330 342 319 301 289 307 345 5 282 254 207 192 187 208 59 77 108 317 74 352 287 332 162 113 255 313 227 248 50 352 344 333 326 322 305 293 235 274 196 165 165 146 134 135 150 131
243 265 282 293 303 306 309 322 328 328 330 288 238 10 178 153 256 240 188 201 141 44 5 360 36 6 198 297 110 90 229 229 82 239 242 229 356 348 339 340 338 338 346 4 26 12 107 120 135 141 136 144 136 135
241 259 275 291 298 300 308 317 327 353 23 278 269 183 219 166 245 45 26 18 34 356 8 347 298 230 283 102 258 186 232 359 262 246 239 24 344 335 338 348 349 347 358 3 22 34 108 130 138 144 144 145 143 144
249 254 278 289 286 275 290 319 296 119 89 249 224 213 201 76 45 40 116 52 20 332 312 265 267 245 246 121 180 115 215 246 233 237 22 328 327 335 339 346 346 348 348 0 3 31 107 122 127 127 143 146 143 140
243 263 280 291 213 239 306 306 210 184 186 247 247 243 192 311 129 246 31 55 130 334 291 268 264 200 245 175 173 208 197 222 182 307 295 321 330 333 334 333 329 330 338 349 2 44 113 122 133 135 134 139 143 146
221 213 187 207 254 312 316 184 182 208 256 230 236 232 298 45 62 112 225 49 41 12 331 322 231 229 33 220 229 200 218 59 341 311 309 321 320 322 326 326 335 340 342 354 6 34 111 131 130 126 127 136 138 136
191 190 199 210 274 300 164 144 143 241 247 239 234 187 204 76 170 174 118 64 15 110 10 286 299 228 229 247 212 59 42 350 304 3 311 314 309 342 341 332 331 339 339 9 85 111 132 136 124 118 123 127 123 125
211 221 211 220 236 244 83 112 55 255 235 330 287 238 210 228 318 344 287 212 62 56 64 214 246 230 224 62 84 111 235 238 277 303 296 294 326 355 336 337 329 323 331 306 238 173 180 174 153 140 141 143 138 141
207 187 217 210 210 104 20 160 275 274 228 149 342 164 214 236 260 306 318 230 188 132 134 220 227 203 139 133 146 227 250 295 302 301 288 311 339 331 324 320 308 319 309 289 284 159 135 135 156 158 157 151 148 152
162 147 165 169 132 97 95 142 238 272 344 248 79 90 234 210 255 236 209 187 103 203 230 222 207 133 104 131 215 257 265 265 282 278 303 306 314 306 307 306 295 302 277 253 204 210 190 180 176 166 162 157 158 152
137 168 120 120 98 76 291 152 300 77 236 55 159 182 229 195 200 214 328 206 230 236 200 151 146 135 158 196 202 271 281 293 284 270 282 291 304 311 310 313 287 256 259 255 232 203 188 179 169 162 151 144 145 142
133 112 103 117 117 172 243 186 218 194 201 172 110 245 247 193 168 94 240 227 246 224 139 132 136 151 165 265 254 277 273 265 277 278 293 298 291 293 299 300 294 262 269 260 239 206 179 175 167 153 148 146 141 140
108 110 150 176 190 209 142 205 231 188 91 206 204 248 216 185 165 224 254 240 220 113 143 176 150 161 227 229 241 226 218 262 277 280 278 281 286 286 288 294 294 285 268 267 225 192 182 172 167 163 157 152 152 149
125 185 161 180 332 141 203 178 188 196 237 176 186 271 231 118 158 238 232 263 190 201 196 166 168 184 190 249 268 256 261 251 250 270 275 270 278 288 289 289 285 278 271 239 196 186 183 177 170 166 165 162 157 153
191 181 179 182 186 189 188 167 196 198 161 184 219 159 114 122 133 244 236 222 202 187 183 188 191 182 229 219 228 217 246 242 251 271 279 273 264 260 278 292 299 292 262 237 217 202 192 184 174 167 169 169 165 152
186 181 186 235 157 117 109 74 63 155 188 192 181 159 125 175 240 247 260 228 192 210 204 208 197 198 213 224 241 255 270 271 258 261 280 277 274 272 263 259 261 263 277 251 232 213 195 186 180 172 164 167 170 163
183 154 163 173 171 157 148 170 187 205 200 185 133 180 187 199 232 232 201 180 201 195 201 209 218 231 246 258 269 276 279 281 281 282 284 283 279 275 272 265 262 262 260 251 247 220 201 188 181 172 165 161 158 162
154 148 121 135 129 194 212 193 214 211 159 154 176 207 228 228 232 209 208 207 205 210 224 246 258 266 269 271 273 275 273 266 234 253 261 274 282 270 284 278 274 274 259 238 232 212 201 189 178 169 162 157 153 157
155 162 119 158 168 210 210 148 156 7 343 137 323 314 294 276 255 245 235 225 213 220 241 253 254 240 249 256 273 277 271 265 252 236 254 260 255 278 290 300 305 288 247 230 214 194 185 174 163 149 143 141 140 141
129 118 117 142 207 91 74 343 303 324 7 317 9 189 260 304 305 268 247 248 244 240 240 247 256 255 250 255 250 270 286 285 262 263 261 264 268 275 284 287 282 288 234 206 182 173 171 153 151 145 144 143 144 145
152 165 138 165 194 186 162 86 138 242 278 347 270 26 323 357 277 273 213 190 180 197 227 235 235 264 282 287 289 286 278 280 282 284 283 276 274 272 274 277 273 254 201 181 167 157 149 147 151 144 139 138 142 144
84 71 76 107 104 138 155 89 29 317 285 261 260 193 227 211 243 273 266 231 228 225 233 256 276 290 298 300 303 312 308 303 298 287 277 267 261 263 269 259 246 198 172 162 154 153 151 150 148 141 138 139 140 146